[[{"header":{"parameterUnit":"m.s-1","parameterCategory":1,"la1":30.2992,"la2":30.254,"lo1":-89.0895,"lo2":-89.0443,"dy":0.0025,"dx":0.0025,"nx":19,"ny":19,"refTime":"2026-05-09T03:00:00:Z","depth":0,"parameterNumber":2,"parameterNumberName":"U-component_of_WINDS"},"data":[0,0,0,-2.879,-2.8791,-2.8797,-2.8797,-2.884,-2.8841,0,0,0,0,0,0,0,0,0,0,0,-2.8808,-2.8809,-2.879,-2.8791,-2.8797,-2.8797,-2.884,-2.8841,0,0,0,0,0,0,0,0,0,0,0,-2.8807,-2.8808,-2.881,-2.8791,-2.8797,-2.8797,-2.884,-2.8823,0,0,0,0,0,0,0,0,0,0,-2.8811,-2.8845,-2.8808,-2.881,-2.8791,-2.8797,-2.8797,-2.8822,-2.8824,-2.8852,0,-2.888,0,-2.8861,-2.8846,-2.8846,0,0,0,-2.8777,-2.8843,-2.8828,-2.881,-2.8791,-2.8797,-2.879,-2.8823,-2.8825,-2.8855,-2.888,-2.8881,-2.8862,-2.8846,-2.8847,-2.9052,-2.9053,0,0,-2.8776,-2.8819,-2.8826,-2.8831,-2.883,-2.879,-2.8791,-2.8824,-2.8854,-2.888,-2.8881,-2.8863,-2.8847,-2.8847,-2.905,-2.9052,0,0,0,-2.8785,-2.882,-2.8802,-2.883,-2.8828,-2.8791,-2.8791,-2.8853,-2.8844,-2.8882,-2.8863,-2.8847,-2.8848,-2.9048,-2.9051,-2.9172,0,0,0,-2.8784,-2.8825,-2.8803,-2.8829,-2.8828,-2.884,-2.882,-2.8841,-2.8844,-2.8863,-2.8847,-2.8849,-2.9046,-2.905,-2.9165,-2.9222,0,0,0,-2.8801,-2.8826,-2.8834,-2.8832,-2.8836,-2.8839,-2.8831,-2.8841,-2.8833,-2.8846,-2.8849,-2.9045,-2.9049,-2.9158,-2.9211,-2.9288,0,0,0,-2.8831,-2.8941,-2.8836,-2.8953,-2.8836,-2.8914,-2.883,-2.8886,-2.8911,-2.8848,-2.9047,-2.9051,-2.9156,-2.9204,-2.9281,-2.9359,-2.9396,0,0,-2.8994,-2.8962,-2.9028,-2.8934,-2.9041,-2.891,-2.9035,-2.9018,-2.898,-2.9031,-2.9035,-2.9167,-2.921,-2.9286,-2.9591,-2.9621,0,0,0,-2.9094,-2.9141,-2.916,-2.9187,-2.9177,-2.9173,-2.9133,-2.9127,-2.9167,-2.9014,-2.9215,-2.9239,-2.9283,-2.9318,-2.9343,-2.9377,-2.9069,-2.9069,-2.9068,-2.9384,-2.9331,-2.9436,-2.9385,-2.9412,-2.937,-2.9388,-2.9373,-2.9311,-2.936,-2.9373,-2.9565,-2.9608,-2.9626,-2.9663,-2.9412,-2.9413,-2.9413,-2.9413,-2.9617,-2.9675,-2.9593,-2.9665,-2.9609,-2.967,-2.9636,-2.9591,-2.964,-2.9549,-2.9585,-2.9489,-2.9661,-2.969,-2.9422,-2.942,-2.9419,-2.9418,-2.9418,-2.9799,-2.9818,-2.981,-2.9845,-2.9879,-2.9824,-2.9875,-2.9823,-2.9774,-2.981,-2.9819,-2.9816,-2.9807,-2.9818,-2.9819,-2.982,-2.982,-2.9821,-2.9821,-2.9991,-2.9978,-3.0027,-3.0029,-3.0041,-3.005,-3.0013,-3.0023,-3.0021,-2.9979,-2.9979,-2.9913,-2.9688,-2.9632,-2.9831,-2.9829,-2.9828,-2.9827,-2.9826,-3.0243,-3.0178,-3.0254,-3.0266,-3.0265,-3.0303,-3.0238,-3.0264,-3.0266,-3.0293,-3.0221,-3.0064,-3.0027,-3.0007,-2.996,-3.0232,-3.0232,-3.0232,-3.0232,-3.0395,-3.0373,-3.044,-3.0463,-3.048,-3.0429,-3.0519,-3.0494,-3.0457,-3.0455,-3.0409,-3.0343,-3.0325,-3.0299,-3.0272,-3.0227,-3.0562,-3.0562,-3.0562,-3.0547,-3.0524,-3.0609,-3.0572,-3.0569,-3.0569,-3.0652,-3.0683,-3.0629,-3.0575,-3.0453,-3.0439,-3.0331,-3.03,-3.0239,-3.0199,-3.0115,0,0]},{"header":{"parameterUnit":"m.s-1","parameterCategory":1,"la1":30.2992,"la2":30.254,"lo1":-89.0895,"lo2":-89.0443,"dy":0.0025,"dx":0.0025,"nx":19,"ny":19,"refTime":"2026-05-09T03:00:00:Z","depth":0,"parameterNumber":3,"parameterNumberName":"V-component_of_WINDS"},"data":[0,0,0,0.6023,0.6026,0.6185,0.6185,0.6376,0.6377,0,0,0,0,0,0,0,0,0,0,0,0.5965,0.5965,0.6023,0.6027,0.6185,0.6185,0.6375,0.6377,0,0,0,0,0,0,0,0,0,0,0,0.5964,0.5965,0.5966,0.6027,0.6184,0.6185,0.6375,0.6261,0,0,0,0,0,0,0,0,0,0,0.611,0.6043,0.5965,0.5966,0.6028,0.6184,0.6186,0.6256,0.6268,0.6297,0,0.6316,0,0.6349,0.6389,0.6389,0,0,0,0.6036,0.6033,0.6086,0.5966,0.6029,0.6184,0.6116,0.6263,0.6277,0.6313,0.6319,0.6327,0.6352,0.639,0.6391,0.6518,0.6518,0,0,0.6028,0.5988,0.6076,0.6094,0.6064,0.6111,0.6121,0.6271,0.6277,0.632,0.6332,0.6356,0.6391,0.6392,0.6518,0.6518,0,0,0,0.5996,0.5981,0.6031,0.6086,0.6115,0.6115,0.6127,0.627,0.6289,0.6334,0.6358,0.6392,0.6394,0.6518,0.6518,0.6484,0,0,0,0.5991,0.5963,0.6026,0.6004,0.6111,0.6193,0.6121,0.6279,0.6297,0.6357,0.6392,0.6396,0.6518,0.6518,0.6484,0.6474,0,0,0,0.5959,0.5959,0.5978,0.6001,0.6067,0.6192,0.622,0.6284,0.6311,0.6389,0.6396,0.6518,0.6518,0.6485,0.6476,0.6496,0,0,0,0.5913,0.5947,0.5976,0.6024,0.6066,0.6168,0.622,0.6299,0.6362,0.6393,0.6518,0.6518,0.6485,0.6476,0.6496,0.6504,0.6504,0,0,0.5933,0.5948,0.5979,0.601,0.6097,0.6148,0.6232,0.6329,0.6375,0.6469,0.6473,0.6484,0.6476,0.6496,0.6518,0.6517,0,0,0,0.5972,0.5994,0.6026,0.6082,0.6155,0.6218,0.6306,0.6343,0.6423,0.6414,0.6499,0.6495,0.6509,0.6515,0.6514,0.6529,0.6519,0.6519,0.6519,0.5943,0.5998,0.6054,0.6128,0.6183,0.6273,0.6324,0.6389,0.6431,0.645,0.6477,0.6484,0.6489,0.6489,0.6504,0.6487,0.6487,0.6487,0.6487,0.5977,0.6017,0.607,0.6143,0.6203,0.6267,0.6357,0.6384,0.6454,0.6468,0.6483,0.6491,0.6487,0.6502,0.6485,0.6486,0.6486,0.6486,0.6486,0.5964,0.5992,0.6034,0.6122,0.6184,0.6261,0.6325,0.6378,0.6429,0.6444,0.6479,0.648,0.6487,0.6457,0.6457,0.6457,0.6457,0.6457,0.6457,0.5932,0.5981,0.6026,0.6107,0.6151,0.6216,0.6309,0.6355,0.642,0.6454,0.6455,0.6495,0.6476,0.6469,0.6458,0.6458,0.6458,0.6458,0.6458,0.5944,0.595,0.602,0.6063,0.6164,0.6223,0.6291,0.638,0.6427,0.6457,0.6495,0.6472,0.6492,0.6493,0.6488,0.6482,0.6482,0.6482,0.6482,0.5932,0.5946,0.603,0.6097,0.6169,0.6237,0.6318,0.6392,0.6471,0.6504,0.6513,0.6511,0.651,0.6531,0.6531,0.6527,0.6531,0.6531,0.6531,0.5943,0.5967,0.6023,0.6096,0.618,0.6252,0.633,0.6408,0.6499,0.6535,0.6531,0.6529,0.6527,0.6523,0.6557,0.6556,0.655,0,0]}]]